Change the Weather History Date:

Friday, July 26, 2013

  Actual Average Record
Temperature  
Mean Temperature 71 °F 75 °F  
Max Temperature 86 °F 91 °F 99 °F (2010)
Min Temperature 56 °F 59 °F 48 °F (2005)
Degree Days  
Heating Degree Days 0 0  
Month to date heating degree days 0 0  
Since 1 June heating degree days 34 75  
Since 1 July heating degree days 0 0  
Cooling Degree Days 6 10  
Month to date cooling degree days 264 233  
Year to date cooling degree days 463 367  
Since 1 June cooling degree days 424 349  
Growing Degree Days 20 (Base 50)    
Moisture  
Dew Point 52 °F    
Average Humidity 56    
Maximum Humidity 80    
Minimum Humidity 32    
Precipitation  
Precipitation 0.00 in 0.06 in 0.45 in (2005)
Month to date precipitation 0.42 1.51  
Year to date precipitation 5.84 9.40  
Sea Level Pressure  
Sea Level Pressure 30.08 in    
Wind  
Wind Speed 12 mph (ESE)    
Max Wind Speed 28 mph    
Max Gust Speed 33 mph    
Visibility 10 miles    
Events      
T = Trace of Precipitation, MM = Missing Value Source: NWS Daily Summary

Daily Weather History Graph

Daily Weather History Graph

Search for Another Location

Airport or City:

Trip Planner

Search our weather history database for the weather conditions in past years. The results will help you decide how hot, cold, wet, or windy it might be!

Date:

Astronomy

Jul. 26, 2013 Rise Set
Actual Time 5:44 AM MDT 8:21 PM MDT
Civil Twilight 5:12 AM MDT 8:53 PM MDT
Nautical Twilight 4:31 AM MDT 9:33 PM MDT
Astronomical Twilight 3:45 AM MDT 10:19 PM MDT
Moon 10:30 PM MDT (7/26) 10:29 AM MDT (7/26)
Length of Visible Light 15h 41m
Length of Day
14h 37m
Waning Gibbous, 79% of the Moon is Illuminated
Jul 26
Waning Gibbous
Jul 29
Last Quarter
Aug 6
New
Aug 14
First Quarter
Aug 20
Full

Hourly Weather History & Observations

Time (MDT) Temp. Heat Index Dew Point Humidity Pressure Visibility Wind Dir Wind Speed Gust Speed Precip Events Conditions
12:53 AM 66.9 °F - 53.1 °F 61% 30.09 in 10.0 mi Calm Calm - N/A   Clear
1:53 AM 64.0 °F - 54.0 °F 70% 30.09 in 10.0 mi North 5.8 mph - N/A   Clear
2:53 AM 61.0 °F - 52.0 °F 72% 30.09 in 10.0 mi NE 8.1 mph - N/A   Clear
3:53 AM 61.0 °F - 52.0 °F 72% 30.10 in 10.0 mi NE 8.1 mph - N/A   Clear
4:53 AM 59.0 °F - 52.0 °F 78% 30.09 in 10.0 mi Calm Calm - N/A   Clear
5:53 AM 57.0 °F - 51.1 °F 81% 30.11 in 10.0 mi ENE 5.8 mph - N/A   Clear
6:53 AM 60.1 °F - 52.0 °F 75% 30.12 in 10.0 mi East 3.5 mph - N/A   Clear
7:53 AM 66.9 °F - 54.0 °F 63% 30.14 in 10.0 mi ENE 17.3 mph 21.9 mph N/A   Clear
8:53 AM 60.1 °F - 50.0 °F 69% 30.21 in 10.0 mi ENE 25.3 mph 33.4 mph N/A   Clear
9:53 AM 69.1 °F - 51.1 °F 53% 30.19 in 10.0 mi ESE 17.3 mph 24.2 mph N/A   Clear
10:53 AM 70.0 °F - 52.0 °F 53% 30.17 in 10.0 mi SE 17.3 mph 24.2 mph N/A   Clear
11:53 AM 73.9 °F - 51.1 °F 45% 30.15 in 10.0 mi SE 12.7 mph 20.7 mph N/A   Clear
12:53 PM 78.1 °F - 52.0 °F 40% 30.11 in 10.0 mi SSE 13.8 mph 18.4 mph N/A   Clear
1:53 PM 82.0 °F 81.2 °F 53.1 °F 37% 30.07 in 10.0 mi South 8.1 mph 19.6 mph N/A   Clear
2:53 PM 82.9 °F 81.8 °F 53.1 °F 36% 30.05 in 10.0 mi SSE 10.4 mph 19.6 mph N/A   Clear
3:53 PM 84.9 °F 83.2 °F 53.1 °F 33% 30.02 in 10.0 mi South 13.8 mph 19.6 mph N/A   Clear
4:53 PM 84.0 °F - 52.0 °F 33% 30.00 in 10.0 mi SE 13.8 mph 19.6 mph N/A   Clear
5:53 PM 84.0 °F - 51.1 °F 32% 29.99 in 10.0 mi SSE 10.4 mph - N/A   Clear
6:53 PM 81.0 °F - 52.0 °F 36% 29.98 in 10.0 mi ESE 15.0 mph - N/A   Clear
7:53 PM 77.0 °F - 54.0 °F 45% 29.98 in 10.0 mi East 12.7 mph - N/A   Clear
8:53 PM 73.0 °F - 55.0 °F 53% 30.02 in 10.0 mi East 10.4 mph - N/A   Clear
9:53 PM 70.0 °F - 52.0 °F 53% 30.02 in 10.0 mi East 12.7 mph - N/A   Clear
10:53 PM 64.9 °F - 51.1 °F 61% 30.04 in 10.0 mi East 13.8 mph - N/A   Clear
11:53 PM 63.0 °F - 52.0 °F 67% 30.04 in 10.0 mi East 12.7 mph - N/A   Clear